• In India
  • List of Countries
  • For 7 days
  • Water Temperature
  • Satellite Maps
  • Weather Map
  • Weather Widgets
  • user-avatar
    Login

    Hourly Weather Burg bei Magdeburg

    Today, 20 January, Saturday

    Time Temperature Precipitation Wind Pressure Humidity
    00:00 -1°C° 0 mm 3 mps 752 mmHg 90%
    01:00 -1°C° 0 mm 2 mps 752 mmHg 90%
    02:00 -1°C° 0 mm 2 mps 752 mmHg 89%
    03:00 -1°C° 0 mm 3 mps 752 mmHg 89%
    04:00 -1°C° 0 mm 3 mps 752 mmHg 89%
    05:00 -1°C° 0 mm 3 mps 751 mmHg 89%
    06:00 -1°C° 0 mm 3 mps 751 mmHg 90%
    07:00 -1°C° 0 mm 2 mps 751 mmHg 92%
    08:00 -1°C° 0 mm 2 mps 751 mmHg 89%
    09:00 0°C° 0 mm 3 mps 751 mmHg 87%
    10:00 0°C° 0 mm 4 mps 751 mmHg 84%
    11:00 +1°C° 0 mm 3 mps 751 mmHg 80%
    12:00 +2°C° 0 mm 3 mps 750 mmHg 76%
    13:00 +3°C° 0 mm 2 mps 750 mmHg 75%
    14:00 +3°C° 0 mm 2 mps 749 mmHg 78%
    15:00 +2°C° 0 mm 2 mps 749 mmHg 81%
    16:00 +3°C° 0 mm 1 mps 748 mmHg 84%
    17:00 +2°C° 0 mm 1 mps 748 mmHg 86%
    18:00 +1°C° 0 mm 1 mps 748 mmHg 88%
    19:00 -1°C° 0 mm 2 mps 748 mmHg 90%
    20:00 -1°C° 0 mm 2 mps 747 mmHg 91%
    21:00 -1°C° 0 mm 2 mps 747 mmHg 91%
    22:00 -1°C° 0 mm 2 mps 747 mmHg 92%
    23:00 -1°C° 0 mm 2 mps 747 mmHg 92%

    Tomorrow, 21 January, Sunday

    Time Temperature Precipitation Wind Pressure Humidity
    00:00 -1°C° 0 mm 2 mps 748 mmHg 92%
    01:00 -1°C° 0 mm 2 mps 748 mmHg 92%
    02:00 -1°C° 0 mm 2 mps 748 mmHg 92%
    03:00 -1°C° 0 mm 2 mps 749 mmHg 92%
    04:00 -2°C° 0 mm 2 mps 749 mmHg 92%
    05:00 -2°C° 0 mm 2 mps 750 mmHg 93%
    06:00 -2°C° 0 mm 2 mps 750 mmHg 93%
    07:00 -2°C° 0 mm 2 mps 751 mmHg 93%
    08:00 -2°C° 0 mm 2 mps 752 mmHg 92%
    09:00 +1°C° 0 mm 1 mps 753 mmHg 90%
    10:00 +1°C° 0 mm 1 mps 754 mmHg 88%
    11:00 +2°C° 0 mm 1 mps 755 mmHg 84%
    12:00 +2°C° 0 mm 1 mps 755 mmHg 80%
    13:00 +3°C° 0 mm 1 mps 756 mmHg 76%
    14:00 +3°C° 0 mm 1 mps 756 mmHg 78%
    15:00 +2°C° 0 mm 1 mps 757 mmHg 81%
    16:00 +2°C° 0 mm 1 mps 758 mmHg 83%
    17:00 +1°C° 0 mm 1 mps 758 mmHg 86%
    18:00 +1°C° 0 mm 1 mps 758 mmHg 88%
    19:00 0°C° 0 mm 1 mps 758 mmHg 90%
    20:00 0°C° 0 mm 1 mps 758 mmHg 90%
    21:00 -2°C° 0 mm 2 mps 758 mmHg 91%
    22:00 -2°C° 0 mm 2 mps 758 mmHg 92%
    23:00 -2°C° 0 mm 2 mps 758 mmHg 92%

    Day after tomorrow, 22 January, Monday

    Time Temperature Precipitation Wind Pressure Humidity
    00:00 -2°C° 0 mm 2 mps 758 mmHg 92%
    01:00 -2°C° 0 mm 3 mps 757 mmHg 92%
    02:00 -2°C° 0 mm 3 mps 757 mmHg 90%
    03:00 -2°C° 0 mm 3 mps 756 mmHg 89%
    04:00 -2°C° 0 mm 3 mps 756 mmHg 88%
    05:00 -3°C° 0 mm 4 mps 756 mmHg 86%
    06:00 -2°C° 0 mm 4 mps 755 mmHg 84%
    07:00 -2°C° 0 mm 4 mps 755 mmHg 82%
    08:00 -2°C° 0 mm 4 mps 755 mmHg 81%
    09:00 -2°C° 0 mm 4 mps 755 mmHg 79%
    10:00 -1°C° 0 mm 4 mps 755 mmHg 78%
    11:00 -1°C° 0.1 mm 5 mps 755 mmHg 77%
    12:00 -1°C° 0.1 mm 5 mps 754 mmHg 76%
    13:00 0°C° 0.1 mm 5 mps 754 mmHg 75%
    14:00 0°C° 0.1 mm 5 mps 754 mmHg 76%
    15:00 -1°C° 0.1 mm 5 mps 754 mmHg 77%
    16:00 -1°C° 0.1 mm 4 mps 754 mmHg 79%
    17:00 -1°C° 0 mm 4 mps 755 mmHg 80%
    18:00 0°C° 0 mm 3 mps 755 mmHg 82%
    19:00 -1°C° 0 mm 3 mps 756 mmHg 84%
    20:00 -1°C° 0 mm 3 mps 756 mmHg 85%
    21:00 -1°C° 0 mm 2 mps 756 mmHg 87%
    22:00 -1°C° 0 mm 2 mps 757 mmHg 88%
    23:00 -1°C° 0 mm 2 mps 757 mmHg 89%

    23 January, Tuesday

    Time Temperature Precipitation Wind Pressure Humidity
    00:00 +1°C° 0 mm 1 mps 758 mmHg 89%
    01:00 +1°C° 0 mm 1 mps 758 mmHg 90%
    02:00 +1°C° 0 mm 1 mps 759 mmHg 91%
    03:00 +1°C° 0 mm 1 mps 759 mmHg 93%
    04:00 +1°C° 0 mm 1 mps 759 mmHg 94%
    05:00 +1°C° 0 mm 1 mps 760 mmHg 94%
    06:00 +1°C° 0 mm 1 mps 761 mmHg 94%
    07:00 +1°C° 0 mm 1 mps 761 mmHg 94%
    08:00 +1°C° 0 mm 1 mps 762 mmHg 93%
    09:00 +2°C° 0 mm 1 mps 762 mmHg 92%
    10:00 +2°C° 0 mm 1 mps 763 mmHg 91%
    11:00 +3°C° 0 mm 1 mps 763 mmHg 89%
    12:00 +3°C° 0 mm 2 mps 763 mmHg 87%
    13:00 +4°C° 0 mm 2 mps 763 mmHg 86%
    14:00 +4°C° 0 mm 2 mps 763 mmHg 88%
    15:00 +3°C° 0 mm 2 mps 763 mmHg 90%
    16:00 +3°C° 0 mm 2 mps 763 mmHg 92%
    17:00 +2°C° 0 mm 2 mps 763 mmHg 92%
    18:00 +2°C° 0 mm 2 mps 763 mmHg 93%
    19:00 0°C° 0 mm 3 mps 763 mmHg 94%
    20:00 0°C° 0 mm 3 mps 763 mmHg 93%
    21:00 0°C° 0 mm 3 mps 763 mmHg 93%
    22:00 0°C° 0 mm 3 mps 763 mmHg 93%
    23:00 0°C° 0 mm 3 mps 763 mmHg 93%

    24 January, Wednesday

    Time Temperature Precipitation Wind Pressure Humidity
    00:00 0°C° 0 mm 3 mps 762 mmHg 93%
    01:00 0°C° 0 mm 3 mps 762 mmHg 93%
    02:00 0°C° 0 mm 3 mps 762 mmHg 93%
    03:00 0°C° 0 mm 4 mps 761 mmHg 93%
    04:00 0°C° 0 mm 4 mps 761 mmHg 93%
    05:00 +1°C° 0 mm 4 mps 761 mmHg 93%
    06:00 +3°C° 0 mm 4 mps 761 mmHg 93%
    07:00 +3°C° 0 mm 4 mps 761 mmHg 92%
    08:00 +4°C° 0 mm 4 mps 761 mmHg 92%
    09:00 +5°C° 0 mm 4 mps 761 mmHg 92%
    10:00 +5°C° 0 mm 4 mps 761 mmHg 91%
    11:00 +7°C° 0 mm 5 mps 760 mmHg 88%
    12:00 +8°C° 0 mm 5 mps 760 mmHg 86%
    13:00 +9°C° 0 mm 5 mps 760 mmHg 83%
    14:00 +9°C° 0 mm 5 mps 760 mmHg 85%
    15:00 +8°C° 0 mm 5 mps 759 mmHg 86%
    16:00 +8°C° 0 mm 5 mps 759 mmHg 87%
    17:00 +8°C° 0 mm 5 mps 759 mmHg 88%
    18:00 +7°C° 0 mm 5 mps 759 mmHg 88%
    19:00 +7°C° 0 mm 5 mps 759 mmHg 89%
    20:00 +7°C° 0 mm 5 mps 759 mmHg 89%
    21:00 +7°C° 0 mm 5 mps 758 mmHg 89%
    22:00 +7°C° 0 mm 5 mps 758 mmHg 89%
    23:00 +7°C° 0 mm 5 mps 758 mmHg 89%

    25 January, Thursday

    Time Temperature Precipitation Wind Pressure Humidity
    00:00 +7°C° 0 mm 5 mps 758 mmHg 88%
    01:00 +7°C° 0 mm 5 mps 758 mmHg 88%
    02:00 +7°C° 0 mm 5 mps 758 mmHg 88%
    03:00 +7°C° 0 mm 5 mps 757 mmHg 89%
    04:00 +6°C° 0 mm 5 mps 757 mmHg 89%
    05:00 +6°C° 0 mm 5 mps 757 mmHg 88%
    06:00 +6°C° 0 mm 5 mps 757 mmHg 87%
    07:00 +6°C° 0 mm 5 mps 756 mmHg 86%
    08:00 +6°C° 0 mm 5 mps 756 mmHg 83%
    09:00 +7°C° 0 mm 5 mps 756 mmHg 81%
    10:00 +7°C° 0 mm 5 mps 756 mmHg 78%
    11:00 +8°C° 0 mm 5 mps 756 mmHg 77%
    12:00 +9°C° 0 mm 5 mps 756 mmHg 75%
    13:00 +9°C° 0 mm 5 mps 756 mmHg 74%
    14:00 +10°C° 0.5 mm 4 mps 756 mmHg 77%
    15:00 +8°C° 0.5 mm 4 mps 755 mmHg 80%
    16:00 +9°C° 0.5 mm 3 mps 755 mmHg 83%
    17:00 +9°C° 0.1 mm 3 mps 756 mmHg 84%
    18:00 +8°C° 0.1 mm 3 mps 756 mmHg 86%
    19:00 +8°C° 0.1 mm 3 mps 756 mmHg 88%
    20:00 +8°C° 0.2 mm 3 mps 756 mmHg 89%
    21:00 +8°C° 0.2 mm 3 mps 756 mmHg 90%
    22:00 +7°C° 0.2 mm 2 mps 757 mmHg 91%
    23:00 +7°C° 0.1 mm 2 mps 757 mmHg 92%
    Show more